Precipitable_Water
0.19 0.18 0.18 0.17 0.17 0.17 0.16 0.16 0.16 0.17 0.18 0.20 0.20 0.19 0.18 0.19 0.19 0.21 0.24 0.25 0.25 0.27 0.28 0.29 0.30 0.30 0.30 0.30 0.31 0.31 0.32 0.31 0.30 0.31 0.32 0.34 0.37 0.39 0.39 0.41 0.42 0.44
0.19 0.18 0.17 0.17 0.16 0.16 0.16 0.16 0.16 0.18 0.19 0.19 0.19 0.19 0.19 0.20 0.21 0.22 0.24 0.25 0.26 0.27 0.29 0.29 0.30 0.31 0.32 0.32 0.32 0.32 0.32 0.32 0.31 0.32 0.31 0.32 0.34 0.37 0.38 0.40 0.41 0.43
0.18 0.17 0.16 0.16 0.16 0.16 0.16 0.16 0.18 0.19 0.18 0.19 0.19 0.18 0.19 0.21 0.23 0.25 0.26 0.26 0.27 0.27 0.28 0.29 0.31 0.32 0.33 0.33 0.33 0.32 0.31 0.31 0.30 0.30 0.31 0.32 0.34 0.35 0.37 0.39 0.40 0.41
0.16 0.16 0.16 0.15 0.15 0.15 0.15 0.16 0.17 0.17 0.18 0.18 0.18 0.18 0.19 0.23 0.25 0.26 0.26 0.27 0.27 0.28 0.28 0.29 0.30 0.32 0.33 0.33 0.33 0.32 0.31 0.30 0.30 0.31 0.32 0.33 0.34 0.35 0.35 0.38 0.38 0.40
0.15 0.15 0.14 0.14 0.15 0.15 0.15 0.15 0.16 0.17 0.17 0.17 0.17 0.19 0.22 0.24 0.27 0.27 0.27 0.27 0.27 0.27 0.28 0.29 0.30 0.31 0.32 0.32 0.33 0.31 0.30 0.30 0.30 0.30 0.31 0.32 0.34 0.35 0.34 0.35 0.36 0.37
0.13 0.14 0.14 0.14 0.14 0.14 0.16 0.16 0.16 0.16 0.16 0.16 0.19 0.21 0.24 0.26 0.25 0.27 0.28 0.27 0.28 0.28 0.28 0.29 0.30 0.31 0.31 0.32 0.32 0.31 0.30 0.29 0.29 0.30 0.29 0.30 0.32 0.33 0.33 0.33 0.33 0.34
0.13 0.13 0.12 0.12 0.12 0.14 0.15 0.15 0.15 0.15 0.17 0.19 0.21 0.23 0.22 0.22 0.24 0.26 0.27 0.28 0.28 0.28 0.29 0.29 0.30 0.30 0.31 0.31 0.31 0.30 0.31 0.30 0.30 0.30 0.29 0.29 0.30 0.31 0.33 0.33 0.31 0.31
0.12 0.12 0.12 0.12 0.12 0.13 0.13 0.14 0.14 0.16 0.16 0.18 0.18 0.20 0.20 0.21 0.24 0.26 0.27 0.28 0.28 0.29 0.29 0.30 0.30 0.31 0.31 0.31 0.30 0.29 0.29 0.31 0.30 0.30 0.29 0.28 0.29 0.29 0.31 0.32 0.32 0.30
0.12 0.12 0.13 0.13 0.13 0.13 0.13 0.13 0.13 0.14 0.15 0.16 0.17 0.18 0.19 0.21 0.24 0.26 0.26 0.27 0.28 0.29 0.29 0.30 0.31 0.31 0.32 0.32 0.31 0.30 0.29 0.29 0.29 0.29 0.28 0.28 0.28 0.28 0.29 0.31 0.32 0.31
0.13 0.13 0.12 0.11 0.11 0.12 0.12 0.12 0.13 0.14 0.15 0.16 0.17 0.18 0.19 0.21 0.24 0.25 0.25 0.27 0.27 0.28 0.29 0.30 0.31 0.31 0.32 0.32 0.32 0.31 0.29 0.29 0.29 0.29 0.29 0.28 0.28 0.28 0.28 0.29 0.30 0.30
0.12 0.12 0.12 0.11 0.11 0.11 0.11 0.12 0.13 0.14 0.15 0.16 0.17 0.18 0.20 0.22 0.24 0.24 0.26 0.26 0.25 0.25 0.27 0.28 0.28 0.29 0.30 0.31 0.31 0.31 0.30 0.29 0.28 0.28 0.28 0.29 0.29 0.29 0.29 0.30 0.31 0.30
0.11 0.11 0.11 0.11 0.11 0.11 0.12 0.13 0.14 0.14 0.16 0.17 0.18 0.19 0.21 0.21 0.22 0.24 0.24 0.23 0.24 0.24 0.25 0.26 0.27 0.28 0.28 0.28 0.29 0.29 0.29 0.28 0.27 0.27 0.27 0.28 0.29 0.29 0.30 0.30 0.31 0.32
0.11 0.11 0.11 0.12 0.12 0.12 0.13 0.13 0.14 0.15 0.15 0.16 0.18 0.18 0.19 0.20 0.21 0.21 0.22 0.22 0.23 0.23 0.24 0.25 0.26 0.27 0.27 0.27 0.27 0.27 0.28 0.27 0.26 0.26 0.26 0.27 0.29 0.29 0.29 0.30 0.31 0.31
0.11 0.11 0.11 0.12 0.12 0.13 0.13 0.14 0.14 0.14 0.15 0.16 0.17 0.18 0.19 0.19 0.20 0.20 0.21 0.22 0.22 0.23 0.24 0.24 0.25 0.25 0.25 0.26 0.26 0.26 0.26 0.26 0.26 0.25 0.25 0.27 0.29 0.30 0.29 0.29 0.30 0.30
0.12 0.12 0.12 0.12 0.13 0.13 0.14 0.14 0.14 0.15 0.15 0.16 0.16 0.17 0.18 0.19 0.19 0.20 0.20 0.21 0.22 0.22 0.23 0.24 0.24 0.24 0.24 0.25 0.25 0.25 0.26 0.25 0.25 0.25 0.25 0.27 0.29 0.30 0.30 0.29 0.29 0.30
0.12 0.12 0.12 0.13 0.13 0.14 0.14 0.14 0.15 0.15 0.15 0.16 0.17 0.18 0.19 0.19 0.20 0.20 0.21 0.21 0.21 0.22 0.22 0.23 0.23 0.24 0.24 0.24 0.25 0.26 0.26 0.26 0.25 0.25 0.26 0.28 0.29 0.30 0.30 0.29 0.29 0.29
0.13 0.13 0.13 0.13 0.14 0.15 0.15 0.15 0.15 0.16 0.16 0.17 0.18 0.19 0.19 0.20 0.21 0.21 0.21 0.22 0.22 0.22 0.22 0.22 0.23 0.23 0.24 0.24 0.25 0.26 0.27 0.27 0.26 0.26 0.27 0.29 0.30 0.30 0.30 0.29 0.30 0.30
0.13 0.14 0.14 0.14 0.15 0.15 0.16 0.16 0.16 0.17 0.17 0.18 0.19 0.19 0.20 0.21 0.21 0.22 0.22 0.23 0.23 0.24 0.23 0.23 0.23 0.23 0.24 0.25 0.26 0.27 0.28 0.28 0.28 0.27 0.28 0.30 0.31 0.31 0.31 0.31 0.30 0.30
0.14 0.14 0.14 0.15 0.15 0.16 0.16 0.17 0.17 0.17 0.18 0.19 0.19 0.20 0.21 0.21 0.21 0.22 0.23 0.24 0.24 0.24 0.24 0.25 0.25 0.25 0.26 0.28 0.29 0.30 0.30 0.31 0.31 0.31 0.31 0.31 0.31 0.31 0.31 0.31 0.30 0.30
0.14 0.14 0.15 0.15 0.16 0.16 0.17 0.17 0.18 0.18 0.19 0.19 0.20 0.21 0.21 0.21 0.22 0.22 0.23 0.24 0.24 0.25 0.25 0.26 0.27 0.28 0.29 0.29 0.30 0.32 0.32 0.33 0.33 0.33 0.32 0.32 0.32 0.32 0.32 0.31 0.31 0.30
0.14 0.15 0.15 0.16 0.16 0.17 0.17 0.17 0.18 0.19 0.19 0.20 0.20 0.21 0.21 0.21 0.22 0.22 0.23 0.24 0.25 0.26 0.26 0.27 0.28 0.30 0.31 0.32 0.32 0.33 0.33 0.33 0.34 0.33 0.33 0.32 0.32 0.33 0.33 0.32 0.32 0.31
0.15 0.15 0.15 0.16 0.16 0.17 0.17 0.17 0.18 0.19 0.19 0.20 0.20 0.21 0.22 0.22 0.23 0.23 0.24 0.25 0.25 0.26 0.26 0.27 0.29 0.31 0.32 0.33 0.33 0.33 0.33 0.33 0.33 0.33 0.33 0.33 0.33 0.33 0.33 0.33 0.33 0.33
0.15 0.15 0.16 0.16 0.16 0.17 0.17 0.18 0.18 0.19 0.20 0.20 0.21 0.21 0.22 0.22 0.23 0.23 0.24 0.25 0.25 0.26 0.26 0.27 0.28 0.30 0.31 0.32 0.32 0.32 0.33 0.33 0.32 0.31 0.31 0.30 0.30 0.31 0.32 0.33 0.33 0.33
0.16 0.16 0.16 0.17 0.17 0.17 0.18 0.18 0.19 0.19 0.19 0.20 0.20 0.20 0.20 0.21 0.21 0.22 0.23 0.24 0.24 0.25 0.26 0.26 0.27 0.29 0.30 0.31 0.31 0.31 0.31 0.30 0.30 0.29 0.29 0.28 0.29 0.29 0.30 0.30 0.30 0.30
0.16 0.16 0.17 0.17 0.17 0.17 0.17 0.17 0.18 0.18 0.19 0.19 0.19 0.20 0.21 0.22 0.22 0.23 0.23 0.24 0.25 0.25 0.27 0.27 0.27 0.29 0.30 0.31 0.31 0.31 0.31 0.31 0.30 0.29 0.27 0.27 0.27 0.27 0.28 0.28 0.29 0.29
0.16 0.17 0.16 0.16 0.16 0.17 0.18 0.18 0.19 0.19 0.19 0.20 0.20 0.21 0.21 0.22 0.22 0.22 0.23 0.25 0.27 0.26 0.26 0.27 0.28 0.29 0.30 0.30 0.30 0.30 0.29 0.29 0.29 0.28 0.27 0.28 0.28 0.28 0.28 0.29 0.29 0.29
Wind_Speed
29 29 29 30 30 30 30 31 31 31 31 30 31 32 34 35 36 37 38 39 39 41 42 43 46 49 51 53 54 56 57 58 60 61 63 65 66 66 66 65 65 65
30 30 30 31 30 30 30 30 30 30 30 30 31 31 32 33 34 35 35 36 37 37 38 39 41 44 46 48 51 53 54 56 57 58 60 63 65 66 66 65 65 65
32 32 32 32 31 31 30 30 29 29 30 31 31 31 30 30 31 33 33 34 34 35 35 36 37 40 42 44 46 48 51 53 54 55 57 60 62 65 66 65 65 64
33 33 34 33 32 32 31 30 29 29 30 31 31 31 29 29 29 31 32 32 32 33 33 34 35 36 38 40 42 44 46 49 50 52 54 56 59 62 64 64 64 63
36 36 35 34 33 33 32 30 29 29 30 30 30 29 27 27 28 29 30 31 31 31 31 32 32 34 35 37 39 40 42 44 46 48 50 53 55 58 60 62 64 64
37 36 35 34 33 32 31 29 29 30 30 29 27 26 26 26 27 27 28 29 29 29 29 30 30 32 33 35 36 37 38 40 42 44 46 49 51 54 56 59 62 63
35 34 35 35 33 32 31 30 29 29 28 26 25 24 25 25 25 25 26 27 28 28 27 28 29 30 31 32 33 34 35 37 38 40 42 44 47 50 52 54 58 61
34 34 34 33 32 31 30 29 28 27 27 26 25 24 24 24 24 24 24 25 26 26 26 26 27 28 28 29 31 32 32 34 35 37 39 41 43 45 48 50 53 57
32 32 31 30 29 28 28 27 27 28 27 26 25 24 24 24 24 24 24 24 24 25 25 25 25 25 26 27 28 29 30 31 32 34 36 37 39 41 44 46 48 52
30 28 28 29 28 28 28 28 28 27 26 26 25 24 23 23 23 23 23 23 24 23 23 23 23 23 24 25 25 26 27 28 29 31 33 34 36 37 40 42 45 48
29 28 28 28 28 28 28 27 26 25 24 24 24 23 23 22 22 22 22 23 23 23 23 23 22 22 23 23 24 24 24 25 27 28 30 31 33 34 36 38 41 44
29 28 27 27 26 26 25 25 24 23 23 22 22 22 22 21 21 22 22 23 24 24 25 24 24 23 23 23 23 23 23 24 25 26 27 29 30 31 33 35 37 40
26 26 25 24 24 24 23 23 23 23 22 22 22 22 22 21 22 22 23 24 25 25 26 26 25 25 24 24 24 24 24 24 24 25 26 27 28 29 30 31 34 36
24 23 23 22 22 22 22 22 22 22 22 22 22 22 22 22 22 23 23 24 25 25 26 27 27 26 26 25 25 25 25 25 25 25 25 25 26 27 28 29 31 33
21 20 20 20 19 19 19 20 20 20 20 21 21 22 22 22 22 22 23 24 24 25 26 27 27 27 27 27 27 27 26 26 25 25 25 25 25 26 26 27 28 30
18 17 17 17 17 17 17 17 17 18 18 19 20 20 20 21 21 21 22 23 23 24 25 26 27 27 28 28 28 28 27 27 26 25 25 25 25 25 26 26 26 27
15 14 14 14 14 14 14 15 15 15 16 17 18 18 18 19 19 19 20 21 22 23 24 25 26 27 28 28 28 28 27 27 27 26 25 25 25 25 26 25 25 26
12 11 11 11 12 12 12 13 13 14 14 15 16 16 17 17 17 18 18 19 19 20 22 23 24 26 28 28 28 28 28 27 27 26 26 25 26 26 26 25 25 25
10 9 9 9 10 10 11 11 12 12 13 14 14 15 15 15 15 15 15 16 17 18 19 19 20 22 24 25 26 26 26 26 25 25 25 26 26 25 25 25 25 25
10 9 8 8 8 9 9 10 10 11 11 12 12 12 11 11 11 11 12 13 13 14 15 15 16 18 20 22 23 23 24 24 24 24 25 25 25 25 25 25 25 25
10 9 8 8 8 8 8 8 8 9 9 9 9 9 9 9 9 9 10 10 11 11 13 14 15 16 17 19 20 21 22 22 22 23 24 25 25 25 25 25 25 25
11 10 9 8 8 7 7 7 7 7 7 7 7 7 7 7 8 8 8 9 10 10 12 13 13 14 15 16 18 19 20 21 21 22 23 24 24 25 25 25 26 26
11 10 9 9 8 8 8 7 7 6 6 6 6 6 6 7 7 7 7 8 9 10 11 12 13 13 14 15 17 18 19 20 20 21 22 23 23 24 25 26 26 27
12 11 10 9 9 8 7 7 6 6 6 6 6 6 6 7 7 7 7 8 8 9 10 12 12 13 14 15 16 17 18 19 20 21 22 22 23 24 25 26 27 28
12 11 10 10 9 9 8 7 7 7 7 7 6 6 6 7 7 7 7 8 8 8 9 10 11 12 13 14 14 15 16 17 18 19 20 22 23 24 25 26 27 28
12 11 11 11 10 10 9 8 8 8 8 8 7 7 7 7 7 7 8 8 8 9 10 10 11 12 13 13 14 14 15 15 16 18 19 21 22 23 24 25 26 27
Wind_Direction
285 285 284 283 282 282 282 282 281 277 273 272 271 270 268 265 262 258 256 254 253 252 251 249 248 247 246 244 243 243 242 243 243 242 241 240 239 239 239 238 238 239
287 287 286 284 283 283 283 283 280 276 274 274 274 273 270 266 262 259 256 254 253 252 251 250 248 247 245 244 243 243 242 242 242 242 242 240 239 238 238 238 238 238
286 286 286 285 284 283 283 282 278 276 276 276 276 275 271 267 263 259 256 255 253 252 251 250 249 247 245 245 244 244 243 243 242 242 242 241 239 238 238 238 237 237
286 286 286 285 284 283 283 281 278 276 277 277 277 275 271 267 264 261 257 255 253 253 252 251 249 248 246 245 245 245 244 242 242 241 241 241 239 238 238 237 237 237
287 287 286 285 284 283 281 278 276 276 277 277 275 272 269 268 266 262 257 254 253 252 252 251 250 248 247 246 246 245 244 242 242 242 241 240 239 238 238 237 237 237
287 286 286 285 284 282 279 277 276 276 276 276 273 270 270 269 267 264 259 254 252 252 252 251 250 248 247 247 246 246 244 243 242 241 241 240 240 239 238 237 236 236
286 286 285 284 282 279 278 277 276 274 274 275 273 270 270 269 268 266 261 256 252 251 251 251 250 249 247 246 245 245 244 243 241 241 241 240 240 239 238 238 236 236
286 284 283 282 280 277 277 276 274 272 273 275 273 271 270 269 268 266 262 257 254 251 251 251 250 248 247 245 245 245 244 243 241 241 241 241 241 240 239 238 237 235
285 282 280 280 279 277 276 274 273 272 272 273 272 271 270 269 267 266 263 258 254 252 250 250 249 248 247 245 244 244 244 243 242 242 242 242 242 241 240 239 238 236
285 283 280 279 278 277 275 274 273 272 271 270 270 271 270 269 267 266 262 257 253 251 250 250 250 249 247 245 244 244 244 244 244 243 243 243 243 242 241 240 238 236
285 284 281 279 277 274 273 272 272 271 269 267 267 268 269 269 267 264 260 257 253 251 250 250 249 249 248 246 245 245 245 244 244 244 244 244 244 243 242 240 239 237
283 282 280 279 276 273 270 270 271 270 267 265 265 266 268 269 267 265 262 259 255 252 250 249 248 248 248 247 246 246 245 245 245 246 245 245 244 243 242 241 239 237
284 280 278 277 275 272 269 268 268 268 267 266 267 268 269 270 269 267 264 260 256 252 249 248 247 246 246 246 246 246 246 246 247 248 247 246 244 243 242 241 240 238
287 280 276 275 274 272 269 267 267 267 268 267 267 269 269 270 270 269 265 260 256 252 249 248 247 246 245 245 245 245 246 247 248 248 247 245 244 243 242 242 241 239
290 282 275 272 273 272 269 267 267 267 267 266 266 267 269 270 270 268 265 260 256 253 250 248 248 247 246 245 246 246 247 247 248 248 247 245 243 242 241 242 241 239
293 285 276 271 272 273 271 269 268 268 267 266 266 268 270 271 270 266 264 260 256 254 251 249 248 247 247 246 246 246 246 246 246 247 246 244 242 241 240 241 241 239
299 290 279 273 273 274 272 272 272 271 270 269 270 272 273 272 270 266 264 260 257 254 252 250 248 247 247 246 245 245 244 244 244 245 244 243 242 241 240 240 240 239
309 300 287 279 278 277 276 277 277 275 274 273 274 275 276 274 270 267 264 261 258 255 252 250 248 247 246 245 244 244 242 242 242 242 241 241 241 241 240 240 240 239
322 313 300 291 287 284 283 283 282 280 278 277 277 277 277 275 271 269 265 262 260 256 253 251 248 247 245 243 242 240 239 239 239 239 239 239 240 240 240 240 239 239
335 327 316 307 303 298 294 291 288 284 283 281 279 277 277 276 274 270 267 264 261 256 252 249 247 246 243 240 238 238 237 238 238 238 239 239 239 239 239 239 238 238
346 341 333 326 322 315 308 303 297 294 291 287 283 280 280 280 278 276 273 270 266 259 254 250 248 247 244 239 237 237 237 238 238 239 239 240 240 240 239 239 238 238
356 353 348 344 338 331 324 319 314 309 305 300 292 287 285 283 280 279 276 273 269 264 257 252 251 250 246 242 239 239 239 239 239 240 241 241 241 241 240 240 240 240
2 359 356 353 351 346 341 335 329 322 317 311 301 293 289 287 285 282 279 276 272 266 259 255 253 251 249 246 245 244 244 243 242 242 243 243 242 242 242 242 242 242
5 4 2 360 358 355 348 342 338 332 327 323 314 304 301 300 298 293 289 284 279 272 266 261 257 255 254 252 250 248 246 246 246 246 246 246 245 245 244 244 243 242
9 9 8 6 3 1 358 355 353 349 345 341 335 326 319 315 310 303 298 295 291 284 276 267 261 258 257 254 250 249 248 248 248 249 249 249 249 249 247 246 245 243
12 13 13 13 11 10 10 8 4 359 354 351 347 340 331 324 317 309 302 298 296 293 285 275 267 262 259 255 252 252 252 251 251 252 252 253 253 252 250 249 247 245